Year,Month,Day,Hour,Minute,Value (Times are PST for temperature in C)
2009,09,23,00,00,11.20
2009,09,23,00,01,11.20
2009,09,23,00,02,11.20
2009,09,23,00,03,11.20
2009,09,23,00,04,11.20
2009,09,23,00,05,11.20
2009,09,23,00,06,11.20
2009,09,23,00,07,11.20
2009,09,23,00,08,11.10
2009,09,23,00,09,11.10
2009,09,23,00,10,11.10
2009,09,23,00,11,11.10
2009,09,23,00,12,11.10
2009,09,23,00,13,11.10
2009,09,23,00,14,11.10
2009,09,23,00,15,11.10
2009,09,23,00,16,11.10
2009,09,23,00,17,11.10
2009,09,23,00,18,11.10
2009,09,23,00,19,11.10
2009,09,23,00,20,11.10
2009,09,23,00,21,11.10
2009,09,23,00,22,11.10
2009,09,23,00,23,11.10
2009,09,23,00,24,11.10
2009,09,23,00,25,11.10
2009,09,23,00,26,11.10
2009,09,23,00,27,11.10
2009,09,23,00,28,11.10
2009,09,23,00,29,11.10
2009,09,23,00,30,11.00
2009,09,23,00,31,11.00
2009,09,23,00,32,11.00
2009,09,23,00,33,11.00
2009,09,23,00,34,11.00
2009,09,23,00,35,11.00
2009,09,23,00,36,11.00
2009,09,23,00,37,11.00
2009,09,23,00,38,11.00
2009,09,23,00,39,10.90
2009,09,23,00,40,10.90
2009,09,23,00,41,10.90
2009,09,23,00,42,10.90
2009,09,23,00,43,10.90
2009,09,23,00,44,10.90
2009,09,23,00,45,10.90
2009,09,23,00,46,10.90
2009,09,23,00,47,10.90
2009,09,23,00,48,10.80
2009,09,23,00,49,10.80
2009,09,23,00,50,10.80
2009,09,23,00,51,10.80
2009,09,23,00,52,10.90
2009,09,23,00,53,10.90
2009,09,23,00,54,10.90
2009,09,23,00,55,10.90
2009,09,23,00,56,10.90
2009,09,23,00,57,10.90
2009,09,23,00,58,10.90
2009,09,23,00,59,10.90
2009,09,23,01,00,10.90
2009,09,23,01,01,10.90
2009,09,23,01,02,10.90
2009,09,23,01,03,10.90
2009,09,23,01,04,10.90
2009,09,23,01,05,10.90
2009,09,23,01,06,10.80
2009,09,23,01,07,10.80
2009,09,23,01,08,10.80
2009,09,23,01,09,10.80
2009,09,23,01,10,10.80
2009,09,23,01,11,10.80
2009,09,23,01,12,10.80
2009,09,23,01,13,10.80
2009,09,23,01,14,10.80
2009,09,23,01,15,10.80
2009,09,23,01,16,10.80
2009,09,23,01,17,10.70
2009,09,23,01,18,10.70
2009,09,23,01,19,10.70
2009,09,23,01,20,10.70
2009,09,23,01,21,10.70
2009,09,23,01,22,10.70
2009,09,23,01,23,10.70
2009,09,23,01,24,10.60
2009,09,23,01,25,10.60
2009,09,23,01,26,10.60
2009,09,23,01,27,10.60
2009,09,23,01,28,10.60
2009,09,23,01,29,10.60
2009,09,23,01,30,10.60
2009,09,23,01,31,10.60
2009,09,23,01,32,10.60
2009,09,23,01,33,10.60
2009,09,23,01,34,10.60
2009,09,23,01,35,10.60
2009,09,23,01,36,10.60
2009,09,23,01,37,10.60
2009,09,23,01,38,10.60
2009,09,23,01,39,10.60
2009,09,23,01,40,10.60
2009,09,23,01,41,10.60
2009,09,23,01,42,10.60
2009,09,23,01,43,10.60
2009,09,23,01,44,10.60
2009,09,23,01,45,10.60
2009,09,23,01,46,10.60
2009,09,23,01,47,10.60
2009,09,23,01,48,10.50
2009,09,23,01,49,10.50
2009,09,23,01,50,10.50
2009,09,23,01,51,10.50
2009,09,23,01,52,10.50
2009,09,23,01,53,10.50
2009,09,23,01,54,10.50
2009,09,23,01,55,10.50
2009,09,23,01,56,10.50
2009,09,23,01,57,10.50
2009,09,23,01,58,10.50
2009,09,23,01,59,10.40
2009,09,23,02,00,10.40
2009,09,23,02,01,10.40
2009,09,23,02,02,10.40
2009,09,23,02,03,10.40
2009,09,23,02,04,10.40
2009,09,23,02,05,10.40
2009,09,23,02,06,10.40
2009,09,23,02,07,10.40
2009,09,23,02,08,10.40
2009,09,23,02,09,10.40
2009,09,23,02,10,10.40
2009,09,23,02,11,10.40
2009,09,23,02,12,10.40
2009,09,23,02,13,10.40
2009,09,23,02,14,10.40
2009,09,23,02,15,10.40
2009,09,23,02,16,10.40
2009,09,23,02,17,10.40
2009,09,23,02,18,10.40
2009,09,23,02,19,10.40
2009,09,23,02,20,10.40
2009,09,23,02,21,10.40
2009,09,23,02,22,10.40
2009,09,23,02,23,10.40
2009,09,23,02,24,10.40
2009,09,23,02,25,10.40
2009,09,23,02,26,10.40
2009,09,23,02,27,10.40
2009,09,23,02,28,10.40
2009,09,23,02,29,10.40
2009,09,23,02,30,10.40
2009,09,23,02,31,10.40
2009,09,23,02,32,10.40
2009,09,23,02,33,10.40
2009,09,23,02,34,10.40
2009,09,23,02,35,10.40
2009,09,23,02,36,10.40
2009,09,23,02,37,10.40
2009,09,23,02,38,10.40
2009,09,23,02,39,10.40
2009,09,23,02,40,10.40
2009,09,23,02,41,10.40
2009,09,23,02,42,10.30
2009,09,23,02,43,10.30
2009,09,23,02,44,10.30
2009,09,23,02,45,10.30
2009,09,23,02,46,10.30
2009,09,23,02,47,10.30
2009,09,23,02,48,10.30
2009,09,23,02,49,10.30
2009,09,23,02,50,10.30
2009,09,23,02,51,10.30
2009,09,23,02,52,10.30
2009,09,23,02,53,10.20
2009,09,23,02,54,10.20
2009,09,23,02,55,10.20
2009,09,23,02,56,10.20
2009,09,23,02,57,10.20
2009,09,23,02,58,10.20
2009,09,23,02,59,10.20
2009,09,23,03,00,10.20
2009,09,23,03,01,10.20
2009,09,23,03,02,10.20
2009,09,23,03,03,10.10
2009,09,23,03,04,10.10
2009,09,23,03,05,10.10
2009,09,23,03,06,10.10
2009,09,23,03,07,10.10
2009,09,23,03,08,10.10
2009,09,23,03,09,10.10
2009,09,23,03,10,10.10
2009,09,23,03,11,10.10
2009,09,23,03,12,10.10
2009,09,23,03,13,10.10
2009,09,23,03,14,10.10
2009,09,23,03,15,10.10
2009,09,23,03,16,10.10
2009,09,23,03,17,10.10
2009,09,23,03,18,10.10
2009,09,23,03,19,10.10
2009,09,23,03,20,10.10
2009,09,23,03,21,10.10
2009,09,23,03,22,10.10
2009,09,23,03,23,10.10
2009,09,23,03,24,10.10
2009,09,23,03,25,10.10
2009,09,23,03,26,10.00
2009,09,23,03,27,10.00
2009,09,23,03,28,10.00
2009,09,23,03,29,10.00
2009,09,23,03,30,10.00
2009,09,23,03,31,10.00
2009,09,23,03,32,10.00
2009,09,23,03,33,10.00
2009,09,23,03,34,10.00
2009,09,23,03,35,10.00
2009,09,23,03,36,10.00
2009,09,23,03,37,10.00
2009,09,23,03,38,9.90
2009,09,23,03,39,9.90
2009,09,23,03,40,9.90
2009,09,23,03,41,9.90
2009,09,23,03,42,9.90
2009,09,23,03,43,9.90
2009,09,23,03,44,9.90
2009,09,23,03,45,9.90
2009,09,23,03,46,9.90
2009,09,23,03,47,9.90
2009,09,23,03,48,9.90
2009,09,23,03,49,9.90
2009,09,23,03,50,9.90
2009,09,23,03,51,9.90
2009,09,23,03,52,9.90
2009,09,23,03,53,9.90
2009,09,23,03,54,9.90
2009,09,23,03,55,9.80
2009,09,23,03,56,9.80
2009,09,23,03,57,9.80
2009,09,23,03,58,9.80
2009,09,23,03,59,9.80
2009,09,23,04,00,9.80
2009,09,23,04,01,9.80
2009,09,23,04,02,9.80
2009,09,23,04,03,9.80
2009,09,23,04,18,9.80
2009,09,23,04,19,9.80
2009,09,23,04,20,9.80
2009,09,23,04,21,9.90
2009,09,23,04,22,9.90
2009,09,23,04,23,9.90
2009,09,23,04,24,9.90
2009,09,23,04,25,9.90
2009,09,23,04,26,9.90
2009,09,23,04,27,9.90
2009,09,23,04,28,9.90
2009,09,23,04,29,9.90
2009,09,23,04,30,9.90
2009,09,23,04,31,9.80
2009,09,23,04,32,9.80
2009,09,23,04,33,9.80
2009,09,23,04,34,9.80
2009,09,23,04,35,9.80
2009,09,23,04,36,9.80
2009,09,23,04,37,9.80
2009,09,23,04,38,9.80
2009,09,23,04,39,9.80
2009,09,23,04,40,9.80
2009,09,23,04,41,9.80
2009,09,23,04,42,9.80
2009,09,23,04,43,9.80
2009,09,23,04,44,9.80
2009,09,23,04,45,9.80
2009,09,23,04,46,9.80
2009,09,23,04,47,9.80
2009,09,23,04,48,9.80
2009,09,23,04,49,9.80
2009,09,23,04,50,9.80
2009,09,23,04,51,9.80
2009,09,23,04,52,9.80
2009,09,23,04,53,9.80
2009,09,23,04,54,9.80
2009,09,23,04,55,9.80
2009,09,23,04,56,9.80
2009,09,23,04,57,9.80
2009,09,23,04,58,9.80
2009,09,23,04,59,9.80
2009,09,23,05,00,9.80
2009,09,23,05,01,9.80
2009,09,23,05,02,9.80
2009,09,23,05,03,9.70
2009,09,23,05,04,9.70
2009,09,23,05,05,9.70
2009,09,23,05,06,9.70
2009,09,23,05,07,9.70
2009,09,23,05,08,9.70
2009,09,23,05,09,9.70
2009,09,23,05,10,9.70
2009,09,23,05,11,9.70
2009,09,23,05,12,9.70
2009,09,23,05,13,9.70
2009,09,23,05,14,9.70
2009,09,23,05,15,9.70
2009,09,23,05,16,9.70
2009,09,23,05,17,9.60
2009,09,23,05,18,9.60
2009,09,23,05,19,9.60
2009,09,23,05,20,9.60
2009,09,23,05,21,9.60
2009,09,23,05,22,9.60
2009,09,23,05,23,9.60
2009,09,23,05,24,9.60
2009,09,23,05,25,9.60
2009,09,23,05,26,9.60
2009,09,23,05,27,9.60
2009,09,23,05,28,9.60
2009,09,23,05,29,9.60
2009,09,23,05,30,9.60
2009,09,23,05,31,9.60
2009,09,23,05,32,9.50
2009,09,23,05,33,9.50
2009,09,23,05,34,9.50
2009,09,23,05,35,9.50
2009,09,23,05,36,9.50
2009,09,23,05,37,9.50
2009,09,23,05,38,9.50
2009,09,23,05,39,9.50
2009,09,23,05,40,9.50
2009,09,23,05,41,9.50
2009,09,23,05,42,9.50
2009,09,23,05,43,9.40
2009,09,23,05,44,9.40
2009,09,23,05,45,9.40
2009,09,23,05,46,9.40
2009,09,23,05,47,9.40
2009,09,23,05,48,9.40
2009,09,23,05,49,9.40
2009,09,23,05,50,9.40
2009,09,23,05,51,9.40
2009,09,23,05,52,9.40
2009,09,23,05,53,9.40
2009,09,23,05,54,9.40
2009,09,23,05,55,9.40
2009,09,23,05,56,9.40
2009,09,23,05,57,9.40
2009,09,23,05,58,9.40
2009,09,23,05,59,9.40
2009,09,23,06,00,9.40
2009,09,23,06,01,9.40
2009,09,23,06,02,9.40
2009,09,23,06,03,9.40
2009,09,23,06,04,9.50
2009,09,23,06,05,9.50
2009,09,23,06,06,9.50
2009,09,23,06,07,9.50
2009,09,23,06,08,9.50
2009,09,23,06,09,9.50
2009,09,23,06,10,9.50
2009,09,23,06,11,9.50
2009,09,23,06,12,9.50
2009,09,23,06,13,9.50
2009,09,23,06,14,9.50
2009,09,23,06,15,9.50
2009,09,23,06,16,9.50
2009,09,23,06,17,9.50
2009,09,23,06,18,9.50
2009,09,23,06,19,9.40
2009,09,23,06,20,9.40
2009,09,23,06,21,9.40
2009,09,23,06,22,9.40
2009,09,23,06,23,9.40
2009,09,23,06,24,9.40
2009,09,23,06,25,9.40
2009,09,23,06,26,9.40
2009,09,23,06,27,9.40
2009,09,23,06,28,9.40
2009,09,23,06,29,9.40
2009,09,23,06,30,9.40
2009,09,23,06,31,9.40
2009,09,23,06,32,9.40
2009,09,23,06,33,9.40
2009,09,23,06,34,9.40
2009,09,23,06,35,9.40
2009,09,23,06,36,9.30
2009,09,23,06,37,9.30
2009,09,23,06,38,9.30
2009,09,23,06,39,9.30
2009,09,23,06,40,9.30
2009,09,23,06,41,9.30
2009,09,23,06,42,9.30
2009,09,23,06,43,9.30
2009,09,23,06,44,9.30
2009,09,23,06,45,9.30
2009,09,23,06,46,9.30
2009,09,23,06,47,9.30
2009,09,23,06,48,9.30
2009,09,23,06,49,9.30
2009,09,23,06,50,9.40
2009,09,23,06,51,9.40
2009,09,23,06,52,9.30
2009,09,23,06,53,9.30
2009,09,23,06,54,9.30
2009,09,23,06,55,9.30
2009,09,23,06,56,9.30
2009,09,23,06,57,9.30
2009,09,23,06,58,9.30
2009,09,23,06,59,9.30
2009,09,23,07,00,9.30
2009,09,23,07,01,9.30
2009,09,23,07,02,9.30
2009,09,23,07,03,9.40
2009,09,23,07,04,9.40
2009,09,23,07,05,9.40
2009,09,23,07,06,9.40
2009,09,23,07,07,9.40
2009,09,23,07,08,9.40
2009,09,23,07,09,9.40
2009,09,23,07,10,9.40
2009,09,23,07,11,9.40
2009,09,23,07,12,9.40
2009,09,23,07,13,9.40
2009,09,23,07,14,9.40
2009,09,23,07,15,9.40
2009,09,23,07,16,9.40
2009,09,23,07,17,9.40
2009,09,23,07,18,9.40
2009,09,23,07,19,9.40
2009,09,23,07,20,9.40
2009,09,23,07,21,9.40
2009,09,23,07,22,9.40
2009,09,23,07,23,9.40
2009,09,23,07,24,9.40
2009,09,23,07,25,9.40
2009,09,23,07,26,9.40
2009,09,23,07,27,9.50
2009,09,23,07,28,9.50
2009,09,23,07,29,9.50
2009,09,23,07,30,9.50
2009,09,23,07,31,9.50
2009,09,23,07,32,9.50
2009,09,23,07,33,9.50
2009,09,23,07,34,9.50
2009,09,23,07,35,9.50
2009,09,23,07,36,9.50
2009,09,23,07,37,9.50
2009,09,23,07,38,9.50
2009,09,23,07,39,9.60
2009,09,23,07,40,9.60
2009,09,23,07,41,9.60
2009,09,23,07,42,9.60
2009,09,23,07,43,9.60
2009,09,23,07,44,9.60
2009,09,23,07,45,9.60
2009,09,23,07,46,9.60
2009,09,23,07,47,9.60
2009,09,23,07,48,9.70
2009,09,23,07,49,9.70
2009,09,23,07,50,9.70
2009,09,23,07,51,9.70
2009,09,23,07,52,9.70
2009,09,23,07,53,9.70
2009,09,23,07,54,9.70
2009,09,23,07,55,9.70
2009,09,23,07,56,9.70
2009,09,23,07,57,9.70
2009,09,23,07,58,9.70
2009,09,23,07,59,9.70
2009,09,23,08,00,9.70
2009,09,23,08,01,9.70
2009,09,23,08,02,9.70
2009,09,23,08,03,9.70
2009,09,23,08,04,9.80
2009,09,23,08,05,9.80
2009,09,23,08,06,9.80
2009,09,23,08,07,9.80
2009,09,23,08,08,9.90
2009,09,23,08,09,9.90
2009,09,23,08,10,9.90
2009,09,23,08,11,9.90
2009,09,23,08,12,10.00
2009,09,23,08,13,10.00
2009,09,23,08,14,10.00
2009,09,23,08,15,10.00
2009,09,23,08,16,10.10
2009,09,23,08,17,10.10
2009,09,23,08,18,10.10
2009,09,23,08,19,10.10
2009,09,23,08,20,10.10
2009,09,23,08,21,10.20
2009,09,23,08,22,10.20
2009,09,23,08,23,10.30
2009,09,23,08,24,10.40
2009,09,23,08,25,10.50
2009,09,23,08,26,10.50
2009,09,23,08,27,10.60
2009,09,23,08,28,10.70
2009,09,23,08,29,10.80
2009,09,23,08,30,10.80
2009,09,23,08,31,10.80
2009,09,23,08,32,10.90
2009,09,23,08,33,11.00
2009,09,23,08,34,11.10
2009,09,23,08,35,11.20
2009,09,23,08,36,11.30
2009,09,23,08,37,11.30
2009,09,23,08,38,11.40
2009,09,23,08,39,11.50
2009,09,23,08,40,11.60
2009,09,23,08,41,11.60
2009,09,23,08,42,11.70
2009,09,23,08,43,11.80
2009,09,23,08,44,11.90
2009,09,23,08,45,12.00
2009,09,23,08,46,12.00
2009,09,23,08,47,12.10
2009,09,23,08,48,12.10
2009,09,23,08,49,12.20
2009,09,23,08,50,12.20
2009,09,23,08,51,12.30
2009,09,23,08,52,12.30
2009,09,23,08,53,12.30
2009,09,23,08,54,12.40
2009,09,23,08,55,12.50
2009,09,23,08,56,12.60
2009,09,23,08,57,12.70
2009,09,23,08,58,12.80
2009,09,23,08,59,12.90
2009,09,23,09,00,13.00
2009,09,23,09,01,13.10
2009,09,23,09,02,13.10
2009,09,23,09,03,13.20
2009,09,23,09,04,13.30
2009,09,23,09,05,13.30
2009,09,23,09,06,13.40
2009,09,23,09,07,13.50
2009,09,23,09,08,13.50
2009,09,23,09,09,13.60
2009,09,23,09,10,13.70
2009,09,23,09,11,13.80
2009,09,23,09,12,13.80
2009,09,23,09,13,13.90
2009,09,23,09,14,14.00
2009,09,23,09,15,14.10
2009,09,23,09,16,14.20
2009,09,23,09,17,14.30
2009,09,23,09,18,14.40
2009,09,23,09,19,14.50
2009,09,23,09,20,14.60
2009,09,23,09,21,14.70
2009,09,23,09,22,14.80
2009,09,23,09,23,14.80
2009,09,23,09,24,15.00
2009,09,23,09,25,15.00
2009,09,23,09,26,15.00
2009,09,23,09,27,15.00
2009,09,23,09,28,15.10
2009,09,23,09,29,15.20
2009,09,23,09,30,15.20
2009,09,23,09,31,15.30
2009,09,23,09,32,15.40
2009,09,23,09,33,15.50
2009,09,23,09,34,15.60
2009,09,23,09,35,15.70
2009,09,23,09,36,15.90
2009,09,23,09,37,16.10
2009,09,23,09,38,16.20
2009,09,23,09,39,16.30
2009,09,23,09,40,16.50
2009,09,23,09,41,16.60
2009,09,23,09,42,16.80
2009,09,23,09,43,17.00
2009,09,23,09,44,17.20
2009,09,23,09,45,17.40
2009,09,23,09,46,17.60
2009,09,23,09,47,17.70
2009,09,23,09,48,17.80
2009,09,23,09,49,17.90
2009,09,23,09,50,18.00
2009,09,23,09,51,18.10
2009,09,23,09,52,18.30
2009,09,23,09,53,18.40
2009,09,23,09,54,18.40
2009,09,23,09,55,18.50
2009,09,23,09,56,18.60
2009,09,23,09,57,18.70
2009,09,23,09,58,18.70
2009,09,23,09,59,18.80
2009,09,23,10,00,18.90
2009,09,23,10,01,19.00
2009,09,23,10,02,19.10
2009,09,23,10,03,19.10
2009,09,23,10,04,19.20
2009,09,23,10,05,19.40
2009,09,23,10,06,19.50
2009,09,23,10,07,19.60
2009,09,23,10,08,19.70
2009,09,23,10,09,19.80
2009,09,23,10,10,19.90
2009,09,23,10,11,20.10
2009,09,23,10,12,20.10
2009,09,23,10,13,20.20
2009,09,23,10,14,20.30
2009,09,23,10,15,20.30
2009,09,23,10,16,20.40
2009,09,23,10,17,20.40
2009,09,23,10,18,20.40
2009,09,23,10,19,20.50
2009,09,23,10,20,20.50
2009,09,23,10,21,20.60
2009,09,23,10,22,20.60
2009,09,23,10,23,20.70
2009,09,23,10,24,20.70
2009,09,23,10,25,20.80
2009,09,23,10,26,20.80
2009,09,23,10,27,20.90
2009,09,23,10,28,20.90
2009,09,23,10,29,21.00
2009,09,23,10,30,21.10
2009,09,23,10,31,21.20
2009,09,23,10,32,21.20
2009,09,23,10,33,21.30
2009,09,23,10,34,21.40
2009,09,23,10,35,21.40
2009,09,23,10,36,21.50
2009,09,23,10,37,21.50
2009,09,23,10,38,21.60
2009,09,23,10,39,21.70
2009,09,23,10,40,21.80
2009,09,23,10,41,21.80
2009,09,23,10,42,21.90
2009,09,23,10,43,22.00
2009,09,23,10,44,22.10
2009,09,23,10,45,22.20
2009,09,23,10,46,22.30
2009,09,23,10,47,22.40
2009,09,23,10,48,22.40
2009,09,23,10,49,22.40
2009,09,23,10,50,22.40
2009,09,23,10,51,22.40
2009,09,23,10,52,22.50
2009,09,23,10,53,22.50
2009,09,23,10,54,22.60
2009,09,23,10,55,22.70
2009,09,23,10,56,22.70
2009,09,23,10,57,22.80
2009,09,23,10,58,22.80
2009,09,23,10,59,22.80
2009,09,23,11,00,22.80
2009,09,23,11,01,22.80
2009,09,23,11,02,22.80
2009,09,23,11,03,22.80
2009,09,23,11,04,22.90
2009,09,23,11,05,22.90
2009,09,23,11,06,23.00
2009,09,23,11,07,23.00
2009,09,23,11,08,23.10
2009,09,23,11,09,23.20
2009,09,23,11,10,23.10
2009,09,23,11,11,23.10
2009,09,23,11,12,23.10
2009,09,23,11,13,23.10
2009,09,23,11,14,23.20
2009,09,23,11,15,23.20
2009,09,23,11,16,23.20
2009,09,23,11,17,23.20
2009,09,23,11,18,23.20
2009,09,23,11,19,23.20
2009,09,23,11,20,23.20
2009,09,23,11,21,23.20
2009,09,23,11,22,23.20
2009,09,23,11,23,23.20
2009,09,23,11,24,23.20
2009,09,23,11,25,23.20
2009,09,23,11,26,23.20
2009,09,23,11,27,23.20
2009,09,23,11,28,23.20
2009,09,23,11,29,23.20
2009,09,23,11,30,23.30
2009,09,23,11,31,23.30
2009,09,23,11,32,23.40
2009,09,23,11,33,23.40
2009,09,23,11,34,23.50
2009,09,23,11,35,23.50
2009,09,23,11,36,23.60
2009,09,23,11,37,23.70
2009,09,23,11,38,23.70
2009,09,23,11,39,23.70
2009,09,23,11,40,23.70
2009,09,23,11,41,23.70
2009,09,23,11,42,23.70
2009,09,23,11,43,23.80
2009,09,23,11,44,23.80
2009,09,23,11,45,23.80
2009,09,23,11,46,23.80
2009,09,23,11,47,23.80
2009,09,23,11,48,23.80
2009,09,23,11,49,23.80
2009,09,23,11,50,23.70
2009,09,23,11,51,23.80
2009,09,23,11,52,23.80
2009,09,23,11,53,23.80
2009,09,23,11,54,23.80
2009,09,23,11,55,23.90
2009,09,23,11,56,23.90
2009,09,23,11,57,24.00
2009,09,23,11,58,24.10
2009,09,23,11,59,24.10
2009,09,23,12,00,24.10
2009,09,23,12,01,24.20
2009,09,23,12,02,24.20
2009,09,23,12,03,24.20
2009,09,23,12,04,24.20
2009,09,23,12,05,24.30
2009,09,23,12,06,24.30
2009,09,23,12,07,24.30
2009,09,23,12,08,24.40
2009,09,23,12,09,24.30
2009,09,23,12,10,24.30
2009,09,23,12,11,24.20
2009,09,23,12,12,24.20
2009,09,23,12,13,24.10
2009,09,23,12,14,24.10
2009,09,23,12,15,24.10
2009,09,23,12,16,24.20
2009,09,23,12,17,24.20
2009,09,23,12,18,24.30
2009,09,23,12,19,24.30
2009,09,23,12,20,24.30
2009,09,23,12,21,24.40
2009,09,23,12,22,24.40
2009,09,23,12,23,24.40
2009,09,23,12,24,24.40
2009,09,23,12,25,24.30
2009,09,23,12,26,24.30
2009,09,23,12,27,24.20
2009,09,23,12,28,24.20
2009,09,23,12,29,24.20
2009,09,23,12,30,24.20
2009,09,23,12,31,24.20
2009,09,23,12,32,24.30
2009,09,23,12,33,24.30
2009,09,23,12,34,24.40
2009,09,23,12,35,24.40
2009,09,23,12,36,24.40
2009,09,23,12,37,24.40
2009,09,23,12,38,24.40
2009,09,23,12,39,24.50
2009,09,23,12,40,24.60
2009,09,23,12,41,24.70
2009,09,23,12,42,24.80
2009,09,23,12,43,24.90
2009,09,23,12,44,24.90
2009,09,23,12,45,25.00
2009,09,23,12,46,25.00
2009,09,23,12,47,25.10
2009,09,23,12,48,25.20
2009,09,23,12,49,25.30
2009,09,23,12,50,25.30
2009,09,23,12,51,25.30
2009,09,23,12,52,25.40
2009,09,23,12,53,25.50
2009,09,23,12,54,25.50
2009,09,23,12,55,25.60
2009,09,23,12,56,25.70
2009,09,23,12,57,25.70
2009,09,23,12,58,25.70
2009,09,23,12,59,25.70
2009,09,23,13,00,25.70
2009,09,23,13,01,25.70
2009,09,23,13,02,25.80
2009,09,23,13,03,25.80
2009,09,23,13,04,25.90
2009,09,23,13,05,25.90
2009,09,23,13,06,25.90
2009,09,23,13,07,26.00
2009,09,23,13,08,26.00
2009,09,23,13,09,26.10
2009,09,23,13,10,26.20
2009,09,23,13,11,26.30
2009,09,23,13,12,26.40
2009,09,23,13,13,26.50
2009,09,23,13,14,26.60
2009,09,23,13,15,26.70
2009,09,23,13,16,26.80
2009,09,23,13,17,26.90
2009,09,23,13,18,26.90
2009,09,23,13,19,26.90
2009,09,23,13,20,26.90
2009,09,23,13,21,26.80
2009,09,23,13,22,26.80
2009,09,23,13,23,26.80
2009,09,23,13,24,26.80
2009,09,23,13,25,26.80
2009,09,23,13,26,26.80
2009,09,23,13,27,26.80
2009,09,23,13,28,26.90
2009,09,23,13,29,26.90
2009,09,23,13,30,27.00
2009,09,23,13,31,27.10
2009,09,23,13,32,27.10
2009,09,23,13,33,27.20
2009,09,23,13,34,27.10
2009,09,23,13,35,27.10
2009,09,23,13,36,27.10
2009,09,23,13,37,27.00
2009,09,23,13,38,27.00
2009,09,23,13,39,27.10
2009,09,23,13,40,27.10
2009,09,23,13,41,27.20
2009,09,23,13,42,27.20
2009,09,23,13,43,27.20
2009,09,23,13,44,27.30
2009,09,23,13,45,27.40
2009,09,23,13,46,27.50
2009,09,23,13,47,27.60
2009,09,23,13,48,27.70
2009,09,23,13,49,27.80
2009,09,23,13,50,27.80
2009,09,23,13,51,27.80
2009,09,23,13,52,27.90
2009,09,23,13,53,27.90
2009,09,23,13,54,28.00
2009,09,23,13,55,28.10
2009,09,23,13,56,28.10
2009,09,23,13,57,28.10
2009,09,23,13,58,28.20
2009,09,23,13,59,28.10
2009,09,23,14,00,28.00
2009,09,23,14,01,27.90
2009,09,23,14,02,27.80
2009,09,23,14,03,27.70
2009,09,23,14,04,27.60
2009,09,23,14,05,27.60
2009,09,23,14,06,27.50
2009,09,23,14,07,27.60
2009,09,23,14,08,27.60
2009,09,23,14,09,27.70
2009,09,23,14,10,27.70
2009,09,23,14,11,27.80
2009,09,23,14,12,27.90
2009,09,23,14,13,27.90
2009,09,23,14,14,28.00
2009,09,23,14,15,28.00
2009,09,23,14,16,28.10
2009,09,23,14,17,28.20
2009,09,23,14,18,28.20
2009,09,23,14,19,28.30
2009,09,23,14,20,28.40
2009,09,23,14,21,28.40
2009,09,23,14,22,28.50
2009,09,23,14,23,28.60
2009,09,23,14,24,28.60
2009,09,23,14,25,28.70
2009,09,23,14,26,28.70
2009,09,23,14,27,28.70
2009,09,23,14,28,28.80
2009,09,23,14,29,28.80
2009,09,23,14,30,28.80
2009,09,23,14,31,28.80
2009,09,23,14,32,28.80
2009,09,23,14,33,28.70
2009,09,23,14,34,28.70
2009,09,23,14,35,28.60
2009,09,23,14,36,28.60
2009,09,23,14,37,28.60
2009,09,23,14,38,28.60
2009,09,23,14,39,28.60
2009,09,23,14,40,28.60
2009,09,23,14,41,28.70
2009,09,23,14,42,28.70
2009,09,23,14,43,28.70
2009,09,23,14,44,28.70
2009,09,23,14,45,28.80
2009,09,23,14,46,28.80
2009,09,23,14,47,28.70
2009,09,23,14,48,28.80
2009,09,23,14,49,28.80
2009,09,23,14,50,28.90
2009,09,23,14,51,28.90
2009,09,23,14,52,28.90
2009,09,23,14,53,29.00
2009,09,23,14,54,29.00
2009,09,23,14,55,29.00
2009,09,23,14,56,29.00
2009,09,23,14,57,29.00
2009,09,23,14,58,29.00
2009,09,23,14,59,29.00
2009,09,23,15,00,28.90
2009,09,23,15,01,28.80
2009,09,23,15,02,28.70
2009,09,23,15,03,28.70
2009,09,23,15,04,28.60
2009,09,23,15,05,28.50
2009,09,23,15,06,28.50
2009,09,23,15,07,28.50
2009,09,23,15,08,28.50
2009,09,23,15,09,28.60
2009,09,23,15,10,28.60
2009,09,23,15,11,28.60
2009,09,23,15,12,28.70
2009,09,23,15,13,28.60
2009,09,23,15,14,28.60
2009,09,23,15,15,28.60
2009,09,23,15,16,28.60
2009,09,23,15,17,28.60
2009,09,23,15,18,28.60
2009,09,23,15,19,28.60
2009,09,23,15,20,28.60
2009,09,23,15,21,28.60
2009,09,23,15,22,28.60
2009,09,23,15,23,28.60
2009,09,23,15,24,28.60
2009,09,23,15,25,28.60
2009,09,23,15,26,28.60
2009,09,23,15,27,28.60
2009,09,23,15,28,28.60
2009,09,23,15,29,28.60
2009,09,23,15,30,28.60
2009,09,23,15,31,28.60
2009,09,23,15,32,28.70
2009,09,23,15,33,28.70
2009,09,23,15,34,28.60
2009,09,23,15,35,28.40
2009,09,23,15,36,28.30
2009,09,23,15,37,28.20
2009,09,23,15,38,28.10
2009,09,23,15,39,28.10
2009,09,23,15,40,28.10
2009,09,23,15,41,28.00
2009,09,23,15,42,27.90
2009,09,23,15,43,27.80
2009,09,23,15,44,27.70
2009,09,23,15,45,27.60
2009,09,23,15,46,27.50
2009,09,23,15,47,27.50
2009,09,23,15,48,27.40
2009,09,23,15,49,27.40
2009,09,23,15,50,27.40
2009,09,23,15,51,27.40
2009,09,23,15,52,27.40
2009,09,23,15,53,27.50
2009,09,23,15,54,27.50
2009,09,23,15,55,27.50
2009,09,23,15,56,27.40
2009,09,23,15,57,27.40
2009,09,23,15,58,27.40
2009,09,23,15,59,27.40
2009,09,23,16,00,27.50
2009,09,23,16,01,27.50
2009,09,23,16,02,27.60
2009,09,23,16,03,27.60
2009,09,23,16,04,27.60
2009,09,23,16,05,27.60
2009,09,23,16,06,27.60
2009,09,23,16,07,27.70
2009,09,23,16,08,27.70
2009,09,23,16,09,27.70
2009,09,23,16,10,27.60
2009,09,23,16,11,27.60
2009,09,23,16,12,27.60
2009,09,23,16,13,27.60
2009,09,23,16,14,27.60
2009,09,23,16,15,27.60
2009,09,23,16,16,27.60
2009,09,23,16,17,27.60
2009,09,23,16,18,27.70
2009,09,23,16,19,27.70
2009,09,23,16,20,27.70
2009,09,23,16,21,27.70
2009,09,23,16,22,27.70
2009,09,23,16,23,27.60
2009,09,23,16,24,27.60
2009,09,23,16,25,27.60
2009,09,23,16,26,27.60
2009,09,23,16,27,27.60
2009,09,23,16,28,27.60
2009,09,23,16,29,27.60
2009,09,23,16,30,27.60
2009,09,23,16,31,27.60
2009,09,23,16,32,27.60
2009,09,23,16,33,27.60
2009,09,23,16,34,27.60
2009,09,23,16,35,27.60
2009,09,23,16,36,27.60
2009,09,23,16,37,27.60
2009,09,23,16,38,27.60
2009,09,23,16,39,27.60
2009,09,23,16,40,27.60
2009,09,23,16,41,27.50
2009,09,23,16,42,27.40
2009,09,23,16,43,27.40
2009,09,23,16,44,27.40
2009,09,23,16,45,27.40
2009,09,23,16,46,27.30
2009,09,23,16,47,27.30
2009,09,23,16,48,27.20
2009,09,23,16,49,27.20
2009,09,23,16,50,27.10
2009,09,23,16,51,27.10
2009,09,23,16,52,27.10
2009,09,23,16,53,27.10
2009,09,23,16,54,27.10
2009,09,23,16,55,27.00
2009,09,23,16,56,27.00
2009,09,23,16,57,27.00
2009,09,23,16,58,27.00
2009,09,23,16,59,27.00
2009,09,23,17,00,27.00
2009,09,23,17,01,27.00
2009,09,23,17,02,26.90
2009,09,23,17,03,26.90
2009,09,23,17,04,26.90
2009,09,23,17,05,26.90
2009,09,23,17,06,26.90
2009,09,23,17,07,26.90
2009,09,23,17,08,26.80
2009,09,23,17,09,26.80
2009,09,23,17,10,26.80
2009,09,23,17,11,26.70
2009,09,23,17,12,26.70
2009,09,23,17,13,26.70
2009,09,23,17,14,26.70
2009,09,23,17,15,26.60
2009,09,23,17,16,26.60
2009,09,23,17,17,26.60
2009,09,23,17,18,26.60
2009,09,23,17,19,26.50
2009,09,23,17,20,26.50
2009,09,23,17,21,26.40
2009,09,23,17,22,26.40
2009,09,23,17,23,26.40
2009,09,23,17,24,26.40
2009,09,23,17,25,26.30
2009,09,23,17,26,26.30
2009,09,23,17,27,26.30
2009,09,23,17,28,26.20
2009,09,23,17,29,26.20
2009,09,23,17,30,26.20
2009,09,23,17,31,26.20
2009,09,23,17,32,26.20
2009,09,23,17,33,26.10
2009,09,23,17,34,26.10
2009,09,23,17,35,26.00
2009,09,23,17,36,26.00
2009,09,23,17,37,25.90
2009,09,23,17,38,25.90
2009,09,23,17,39,25.90
2009,09,23,17,40,25.90
2009,09,23,17,41,25.90
2009,09,23,17,42,25.80
2009,09,23,17,43,25.80
2009,09,23,17,44,25.70